FW3814 Weather Reports


time (UTC)temp
F
wind
direction
speed
knots
gust
knots
rain 1hr
in
rain 24hr
in
rain mn
in
humidity
%
barometer
mb
20260505000524 59 0 0.0 0.0 0.00 0.00 0.00 61 1013.3
20260505000024 59 0 0.0 0.0 0.00 0.00 0.00 61 1013.5
20260504235524 59 0 0.0 0.0 0.00 0.00 0.00 61 1013.4
20260504235003 59 0 0.0 0.0 0.00 0.00 0.00 61 1013.6
20260504234503 59 0 0.0 0.0 0.00 0.00 0.00 61 1013.6
20260504234003 59 0 0.0 0.0 0.00 0.00 0.00 61 1013.7
20260504233503 59 0 0.0 0.0 0.00 0.00 0.00 61 1013.6
20260504233003 59 270 0.0 0.9 0.00 0.00 0.00 61 1013.7
20260504232503 59 270 0.0 0.9 0.00 0.00 0.00 61 1013.8
20260504232003 60 315 0.0 1.7 0.00 0.00 0.00 61 1013.8
20260504231504 60 289 0.9 1.7 0.00 0.00 0.00 61 1013.8
20260504231003 60 290 0.0 1.7 0.00 0.00 0.00 61 1014.0
20260504230503 60 289 0.9 1.7 0.00 0.00 0.00 61 1013.9
20260504230003 60 275 0.9 2.6 0.00 0.00 0.00 61 1014.0
20260504225524 60 275 0.9 2.6 0.00 0.00 0.00 60 1014.1
20260504225003 60 292 0.9 2.6 0.00 0.00 0.00 60 1014.1
20260504224503 60 297 1.7 3.5 0.00 0.00 0.00 60 1014.2
20260504224003 60 288 1.7 3.5 0.00 0.00 0.00 60 1014.1
20260504223503 60 273 1.7 3.5 0.00 0.00 0.00 60 1014.1
20260504223003 60 281 0.9 3.5 0.00 0.00 0.00 60 1014.2
20260504222503 60 278 0.9 2.6 0.00 0.00 0.00 60 1014.2
20260504222003 60 272 0.9 2.6 0.00 0.00 0.00 60 1014.3
20260504221503 60 276 1.7 2.6 0.00 0.00 0.00 60 1014.3
20260504221003 60 273 1.7 2.6 0.00 0.00 0.00 60 1014.3
20260504220503 60 267 1.7 1.7 0.00 0.00 0.00 60 1014.3
20260504220003 60 265 1.7 4.3 0.00 0.00 0.00 60 1014.5
20260504215503 60 271 2.6 4.3 0.00 0.00 0.00 60 1014.5
20260504215003 60 274 2.6 4.3 0.00 0.00 0.00 60 1014.4
20260504214503 60 269 0.9 3.5 0.00 0.00 0.00 60 1014.5
20260504214003 60 260 0.9 1.7 0.00 0.00 0.00 59 1014.5
20260504213503 60 269 0.9 2.6 0.00 0.00 0.00 59 1014.6
20260504213003 60 274 2.6 4.3 0.00 0.00 0.00 59 1014.5
20260504212524 60 269 3.5 4.3 0.00 0.00 0.00 59 1014.6
20260504212024 61 266 3.5 5.2 0.00 0.00 0.00 59 1014.7
20260504211503 61 264 4.3 6.1 0.00 0.00 0.00 58 1014.9
20260504211024 61 266 5.2 7.0 0.00 0.00 0.00 58 1014.9
20260504210503 61 274 5.2 7.0 0.00 0.00 0.00 58 1014.8
20260504210024 60 270 4.3 7.0 0.00 0.00 0.00 58 1014.8
20260504205503 60 269 4.3 6.1 0.00 0.00 0.00 58 1014.9
20260504205003 60 270 3.5 6.1 0.00 0.00 0.00 58 1014.9
20260504204503 60 260 1.7 4.3 0.00 0.00 0.00 57 1015.0
20260504204024 60 253 0.9 2.6 0.00 0.00 0.00 56 1015.0
20260504203503 60 253 0.0 2.6 0.00 0.00 0.00 56 1015.1
20260504203003 60 217 0.0 0.9 0.00 0.00 0.00 56 1015.0
20260504202503 60 202 0.0 0.9 0.00 0.00 0.00 56 1015.0
20260504202003 60 0 0.0 0.0 0.00 0.00 0.00 55 1014.8
20260504201503 60 0 0.0 0.0 0.00 0.00 0.00 54 1014.8
20260504201003 60 0 0.0 0.0 0.00 0.00 0.00 54 1014.8
20260504200503 61 0 0.0 0.0 0.00 0.00 0.00 53 1014.9
20260504200024 61 0 0.0 0.0 0.00 0.00 0.00 53 1014.9
20260504195524 62 0 0.0 0.0 0.00 0.00 0.00 51 1014.7
20260504195003 62 0 0.0 0.0 0.00 0.00 0.00 51 1014.8
20260504194503 63 0 0.0 0.0 0.00 0.00 0.00 51 1014.8
20260504194003 63 0 0.0 0.0 0.00 0.00 0.00 51 1014.6
20260504193503 63 0 0.0 0.0 0.00 0.00 0.00 51 1014.8
20260504193003 63 0 0.0 0.0 0.00 0.00 0.00 51 1014.8
20260504192503 63 0 0.0 0.0 0.00 0.00 0.00 51 1014.5
20260504192003 63 0 0.0 0.0 0.00 0.00 0.00 51 1014.6
20260504191503 63 0 0.0 0.0 0.00 0.00 0.00 51 1014.5
20260504191024 63 0 0.0 0.0 0.00 0.00 0.00 51 1014.4
20260504190503 63 0 0.0 0.0 0.00 0.00 0.00 50 1014.6
20260504190003 63 0 0.0 0.0 0.00 0.00 0.00 50 1014.4
20260504185503 63 0 0.0 0.0 0.00 0.00 0.00 50 1014.5
20260504185003 63 0 0.0 0.0 0.00 0.00 0.00 50 1014.5
20260504184503 64 0 0.0 0.0 0.00 0.00 0.00 45 1014.4
20260504184003 64 0 0.0 0.0 0.00 0.00 0.00 45 1014.3
20260504183503 64 0 0.0 0.0 0.00 0.00 0.00 45 1014.3
20260504183003 64 0 0.0 0.0 0.00 0.00 0.00 45 1014.4
20260504182503 64 0 0.0 0.0 0.00 0.00 0.00 44 1014.4
20260504182003 64 0 0.0 0.0 0.00 0.00 0.00 45 1014.3
20260504181503 65 270 0.0 0.9 0.00 0.00 0.00 44 1014.2
20260504181003 65 270 0.0 0.9 0.00 0.00 0.00 44 1014.3
20260504180503 65 0 0.0 0.0 0.00 0.00 0.00 43 1014.2
20260504180003 65 0 0.0 0.0 0.00 0.00 0.00 43 1014.3
20260504175503 65 270 0.0 0.9 0.00 0.00 0.00 43 1014.2
20260504175003 65 272 0.9 3.5 0.00 0.00 0.00 43 1014.3
20260504174503 65 265 0.9 3.5 0.00 0.00 0.00 42 1014.2
20260504174003 66 257 0.9 2.6 0.00 0.00 0.00 42 1014.3
20260504173503 66 264 1.7 2.6 0.00 0.00 0.00 41 1014.2
20260504173003 66 276 2.6 4.3 0.00 0.00 0.00 41 1014.3
20260504172503 66 270 2.6 4.3 0.00 0.00 0.00 41 1014.3
20260504172003 66 258 2.6 5.2 0.00 0.00 0.00 40 1014.4
20260504171503 66 261 3.5 5.2 0.00 0.00 0.00 40 1014.3
20260504171003 67 264 2.6 5.2 0.00 0.00 0.00 40 1014.3
20260504170503 67 256 2.6 4.3 0.00 0.00 0.00 40 1014.4
20260504151024 70 282 4.3 7.0 0.00 0.00 0.00 39 1014.9
20260504150503 69 305 2.6 3.5 0.00 0.00 0.00 39 1015.1
20260504141003 70 318 4.3 7.8 0.00 0.00 0.00 39 1015.3
20260504140503 71 296 4.3 5.2 0.00 0.00 0.00 38 1015.5
20260504130503 69 300 2.6 4.3 0.00 0.00 0.00 40 1015.9
20260504110504 66 32 4.3 7.0 0.00 0.00 0.00 41 1016.7
20260504100504 66 271 3.5 6.1 0.00 0.00 0.00 38 1017.0
20260504081504 64 0 0.0 0.0 0.00 0.00 0.00 43 1016.6
20260504081025 64 0 0.0 0.0 0.00 0.00 0.00 44 1016.6
20260504080504 64 0 0.0 0.0 0.00 0.00 0.00 45 1016.8
20260504050504 55 0 0.0 0.0 0.00 0.00 0.00 53 1015.3
20260504050004 55 0 0.0 0.0 0.00 0.00 0.00 53 1015.5
20260504045504 55 0 0.0 0.0 0.00 0.00 0.00 52 1015.3
20260504045004 55 0 0.0 0.0 0.00 0.00 0.00 52 1015.0
20260504044504 55 0 0.0 0.0 0.00 0.00 0.00 53 1015.2
20260504044004 55 0 0.0 0.0 0.00 0.00 0.00 53 1015.0
20260504043504 55 0 0.0 0.0 0.00 0.00 0.00 52 1015.0
20260504043004 55 0 0.0 0.0 0.00 0.00 0.00 51 1015.2
20260504042504 55 0 0.0 0.0 0.00 0.00 0.00 50 1015.2
20260504042004 55 0 0.0 0.0 0.00 0.00 0.00 50 1015.2
20260504041525 55 0 0.0 0.0 0.00 0.00 0.00 48 1015.3
20260504041004 56 0 0.0 0.0 0.00 0.00 0.00 48 1015.1
20260504040504 56 0 0.0 0.0 0.00 0.00 0.00 46 1015.2
20260504040004 56 0 0.0 0.0 0.00 0.00 0.00 46 1015.0
20260504035525 56 0 0.0 0.0 0.00 0.00 0.00 45 1015.1
20260504035004 56 0 0.0 0.0 0.00 0.00 0.00 44 1015.0
20260504034504 56 0 0.0 0.0 0.00 0.00 0.00 44 1015.1
20260504034004 57 0 0.0 0.0 0.00 0.00 0.00 44 1015.2
20260504033525 57 0 0.0 0.0 0.00 0.00 0.00 44 1015.0
20260504033004 58 0 0.0 0.0 0.00 0.00 0.00 44 1014.9
20260504032504 58 0 0.0 0.0 0.00 0.00 0.00 45 1015.2
20260504032025 58 0 0.0 0.0 0.00 0.00 0.00 44 1015.0
20260504031504 58 0 0.0 0.0 0.00 0.00 0.00 44 1015.1
20260504031025 58 17 0.0 1.7 0.00 0.00 0.00 44 1015.1
20260504030504 58 11 0.9 1.7 0.00 0.00 0.00 43 1015.1
20260504030004 58 360 0.0 1.7 0.00 0.00 0.00 42 1015.2
20260504025504 58 0 0.0 0.0 0.00 0.00 0.00 42 1015.1
20260504025004 58 0 0.0 0.0 0.00 0.00 0.00 42 1015.3
20260504024504 58 0 0.0 0.0 0.00 0.00 0.00 42 1015.2
20260504024025 58 0 0.0 0.0 0.00 0.00 0.00 42 1015.1
20260504023525 58 0 0.0 0.0 0.00 0.00 0.00 42 1015.5
20260504023004 58 0 0.0 0.0 0.00 0.00 0.00 42 1015.6
20260504022504 58 0 0.0 0.0 0.00 0.00 0.00 42 1015.5
20260504022004 58 357 0.0 1.7 0.00 0.00 0.00 42 1015.3
20260504021504 58 357 0.0 1.7 0.00 0.00 0.00 43 1015.3
20260504021004 58 0 0.0 0.0 0.00 0.00 0.00 43 1015.3
20260504020504 59 0 0.0 0.0 0.00 0.00 0.00 40 1015.5
20260504020004 59 0 0.0 0.0 0.00 0.00 0.00 40 1015.2
20260504015525 59 0 0.0 0.0 0.00 0.00 0.00 40 1015.3
20260504015004 59 0 0.0 0.0 0.00 0.00 0.00 40 1015.5
20260504014504 59 0 0.0 0.0 0.00 0.00 0.00 40 1015.6
20260504014004 60 0 0.0 0.0 0.00 0.00 0.00 40 1015.3
20260504013504 60 0 0.0 0.0 0.00 0.00 0.00 40 1015.5
20260504013004 60 0 0.0 0.0 0.00 0.00 0.00 40 1015.2
20260504012525 60 0 0.0 0.0 0.00 0.00 0.00 40 1015.3
20260504012025 60 0 0.0 0.0 0.00 0.00 0.00 41 1015.2
20260504011504 60 0 0.0 0.0 0.00 0.00 0.00 41 1015.5
20260504011004 60 0 0.0 0.0 0.00 0.00 0.00 41 1015.3
20260504010504 60 0 0.0 0.0 0.00 0.00 0.00 41 1015.3
20260504010025 60 0 0.0 0.0 0.00 0.00 0.00 41 1015.3
20260504005504 61 0 0.0 0.0 0.00 0.00 0.00 41 1015.2
20260504005004 61 325 0.0 1.7 0.00 0.00 0.00 41 1015.5
20260504004504 61 325 0.0 1.7 0.00 0.00 0.00 41 1015.6
20260504004025 61 360 0.0 0.9 0.00 0.00 0.00 42 1015.6
20260504003504 61 0 0.0 0.0 0.00 0.00 0.00 42 1015.7
20260504003004 61 0 0.0 0.0 0.00 0.00 0.00 43 1015.7
20260504002504 61 0 0.0 0.0 0.00 0.00 0.00 44 1015.7
20260504002004 61 0 0.0 0.0 0.00 0.00 0.00 44 1015.9
20260504001504 61 0 0.0 0.0 0.00 0.00 0.00 45 1016.0
20260504001004 61 0 0.0 0.0 0.00 0.00 0.00 45 1016.0